Ketchikan, AK

11:10 PM AKDT on September 22, 2018 (GMT -0800)
Ketchikan International

Weather History for PAKT - August, 2018

Change the Weather History Date:

Saturday, August 11, 2018

  Actual Average Record
Temperature  
Mean Temperature 65 °F -  
Max Temperature 73 °F 66 °F 82 °F (1977)
Min Temperature 57 °F 51 °F 45 °F (1959)
Growing Degree Days 15 (Base 50)    
Moisture  
Dew Point 50 °F    
Average Humidity 60    
Maximum Humidity 81    
Minimum Humidity 41    
Precipitation  
Precipitation 0.00 in - - ()
Sea Level Pressure  
Sea Level Pressure 30.08 in    
Wind  
Wind Speed 11 mph (NW)    
Max Wind Speed 15 mph    
Max Gust Speed 23 mph    
Visibility 10 miles    
Events      
Averages and records for this station are not official NWS values.
T = Trace of Precipitation, MM = Missing Value Source: NWS Daily Summary

Daily Weather History Graph

Daily Weather History Graph

Search for Another Location

Airport or City:

Astronomy

Aug. 11, 2018 Rise Set
Actual Time 5:12 AM AKDT 8:29 PM AKDT
Civil Twilight 4:29 AM AKDT 9:13 PM AKDT
Nautical Twilight 3:29 AM AKDT 10:11 PM AKDT
Astronomical Twilight 1:59 AM AKDT 11:38 PM AKDT
Moon 5:25 AM AKDT (8/11) 8:57 PM AKDT (8/11)
Length of Visible Light 16h 43m
Length of Day
15h 16m
New Moon, 0% of the Moon is Illuminated
Aug 11
New Moon
Aug 17
First Quarter
Aug 26
Full
Sep 2
Last Quarter
Sep 9
New

Hourly Weather History & Observations

Time (AKDT) Temp. Dew Point Humidity Pressure Visibility Wind Dir Wind Speed Gust Speed Precip Events Conditions
12:53 AM 59.0 °F 50.0 °F 72% 30.09 in 10.0 mi NW 9.2 mph - N/A   Clear
1:53 AM 59.0 °F 50.0 °F 72% 30.08 in 10.0 mi NW 11.5 mph - N/A   Clear
2:53 AM 59.0 °F 50.0 °F 72% 30.08 in 10.0 mi NW 10.4 mph 19.6 mph N/A   Clear
3:53 AM 57.9 °F 51.1 °F 78% 30.08 in 10.0 mi NW 8.1 mph - N/A   Clear
4:53 AM 57.0 °F 51.1 °F 81% 30.08 in 10.0 mi WNW 9.2 mph - N/A   Clear
5:53 AM 57.9 °F 50.0 °F 75% 30.09 in 10.0 mi NW 9.2 mph - N/A   Clear
6:00 AM 57.9 °F 50.0 °F 75% 30.08 in 10.0 mi NW 6.9 mph - N/A   Clear
6:53 AM 60.8 °F 50.0 °F 68% 30.09 in 10.0 mi NW 11.5 mph - N/A   Clear
7:53 AM 60.8 °F 50.0 °F 68% 30.08 in 10.0 mi NW 15.0 mph 20.7 mph N/A   Clear
8:53 AM 62.6 °F 50.0 °F 63% 30.08 in 10.0 mi WNW 13.8 mph 20.7 mph N/A   Clear
9:53 AM 64.4 °F 50.0 °F 59% 30.08 in 10.0 mi NW 13.8 mph 20.7 mph N/A   Clear
10:53 AM 66.2 °F 50.0 °F 56% 30.08 in 10.0 mi WNW 13.8 mph 20.7 mph N/A   Clear
11:53 AM 69.8 °F 50.0 °F 49% 30.08 in 10.0 mi NNW 13.8 mph - N/A   Clear
12:53 PM 71.1 °F 48.9 °F 45% 30.07 in 10.0 mi NW 12.7 mph 21.9 mph N/A   Clear
1:53 PM 71.6 °F 48.2 °F 43% 30.07 in 10.0 mi NW 11.5 mph 18.4 mph N/A   Clear
2:53 PM 71.6 °F 50.0 °F 46% 30.06 in 10.0 mi NW 13.8 mph 20.7 mph N/A   Clear
3:53 PM 73.4 °F 48.2 °F 41% 30.05 in 10.0 mi NW 15.0 mph - N/A   Clear
4:53 PM 69.8 °F 48.2 °F 46% 30.05 in 10.0 mi NW 15.0 mph 23.0 mph N/A   Clear
5:53 PM 69.8 °F 50.0 °F 49% 30.06 in 10.0 mi NW 11.5 mph 19.6 mph N/A   Clear
6:53 PM 68.0 °F 48.2 °F 49% 30.05 in 10.0 mi NW 12.7 mph 21.9 mph N/A   Clear
7:53 PM 66.2 °F 48.2 °F 52% 30.06 in 10.0 mi WNW 8.1 mph - N/A   Clear
8:53 PM 64.4 °F 48.2 °F 56% 30.08 in 10.0 mi NW 11.5 mph - N/A   Clear
9:53 PM 64.0 °F 48.9 °F 58% 30.09 in 10.0 mi NW 11.5 mph - N/A   Clear
10:53 PM 64.0 °F 48.9 °F 58% 30.10 in 10.0 mi NW 10.4 mph - N/A   Clear
11:53 PM 63.0 °F 50.0 °F 63% 30.11 in 10.0 mi NW 13.8 mph 21.9 mph N/A   Clear